[Date Prev][Date Next][Thread Prev][Thread Next] - [Date Index][Thread Index][Author Index]
2 Line ISS Keps 6-15
- Subject: [sarex] 2 Line ISS Keps 6-15
- From: "Dave Larsen PhD" <doc@xxxxxxxxxxx>
- Date: Tue, 15 Jun 2004 05:37:40 -0700
ISS
1 25544U 98067A 04167.36960823 .00011819 00000-0 10509-3 0 9948
2 25544 51.6330 335.0071 0005230 238.6845 210.0511 15.69001211318036
----
Via the sarex mailing list at AMSAT.ORG courtesy of AMSAT-NA.
To unsubscribe, send "unsubscribe sarex" to Majordomo@amsat.org
AMSAT Home